Location: Cit� de la Vacherie
(46.1653°N, 1.1958°W)
Time: 19:45:33
(UTC+00:00)

Daily predictions for brighter satellites

Satellite Brightness Start Highest point End
(mag) Time Altitude Azimuth Time Altitude Azimuth Time Altitude Azimuth
Cosmos 1758 Rocket 3.9 19:23:50 10° NNW 19:28:17 72° W 19:32:45 10° S
Lacrosse 5 rocket 3.1 19:25:28 10° W 19:29:10 34° NNW 19:33:04 10° NE
Cosmos 2034 Rocket 4.0 19:24:28 10° S 19:30:39 74° E 19:36:56 10° NNE
ATLAS 5 CENTAUR R/B 1.1 19:29:15 10° NNW 19:31:05 37° NE 19:33:09 10° ESE
Nadezhda 4 Rocket 4.0 19:26:36 10° N 19:32:58 83° E 19:39:13 10° S
Cosmos 405 Rocket 4.5 19:31:44 10° NNE 19:34:31 18° ENE 19:37:14 10° ESE
In-Cosmos 22 Rocket 4.3 19:32:21 10° N 19:38:13 81° E 19:44:02 10° SSE
Cosmos 1464 Rocket 4.4 19:32:13 10° SSW 19:38:30 71° W 19:44:45 10° N
Cosmos 2237 Rocket 3.6 19:36:36 10° N 19:41:02 23° NE 19:45:28 10° E
SJ-6B 2.7 19:38:06 10° SSE 19:41:48 64° ENE 19:45:31 10° N
BREEZE-M DEB (TANK) 3.6 19:36:42 10° WSW 19:42:08 77° SSE 19:46:58 10° E
Exosat Rocket 4.3 19:35:41 10° NNW 19:42:13 46° NE 19:47:11 11° SE
Meteor 2-10 Rocket 3.6 19:37:28 10° S 19:42:38 67° E 19:48:03 10° NNE
BREEZE-M DEB (TANK) 3.5 19:41:00 10° WSW 19:43:50 79° SSE 19:50:42 10° ENE
SL-8 R/B 3.8 19:39:29 10° WNW 19:44:21 81° NNE 19:48:58 11° ESE
MOS 1 4.4 19:40:19 10° SSE 19:45:50 58° ENE 19:51:22 10° N
Cosmos 405 3.0 19:45:26 10° S 19:48:49 57° E 19:52:15 10° NNE
Cosmos 2026 Rocket 4.1 19:43:23 10° N 19:49:20 53° ENE 19:55:17 10° SSE
OBJECT-B 0.7 19:46:58 10° SSE 19:50:10 78° ENE 19:53:25 10° N
IRS-1A Rocket 4.3 19:45:12 10° SSE 19:50:41 64° ENE 19:56:19 10° N
USA-17 4.3 19:48:44 10° SW 19:52:38 82° SE 19:55:49 10° NE
CZ-4 R/B 4.4 19:50:12 10° SW 19:53:02 17° W 19:55:53 10° NW
BREEZE-M DEB (TANK) 3.8 19:49:26 10° WSW 19:53:16 82° NNW 20:07:01 10° ENE
NOSS 3-4 (A) 3.8 19:48:02 10° SW 19:53:52 68° NW 20:00:12 10° NE
NOSS 3-4 (C) 3.8 19:48:09 10° SW 19:53:59 68° NW 20:00:18 10° NE
Cosmos 1892 2.8 19:52:10 10° NNW 19:55:57 76° W 19:59:42 10° S
Cosmos 2227 Rocket 3.9 19:57:04 12° ESE 19:57:39 13° E 19:59:59 10° ENE
Cosmos 1606 Rocket 4.2 19:54:26 10° SSW 19:58:44 59° WNW 20:03:03 10° N
Cosmos 1627 Rocket 4.5 19:53:22 10° N 19:59:29 67° E 20:05:38 10° SSE
Cosmos 2322 Rocket 4.4 19:55:52 10° NW 20:00:23 25° WSW 20:04:54 10° SSW
Cosmos 2098 Rocket 4.4 19:53:22 10° N 20:00:27 85° E 20:07:55 10° S
Cosmos 2251 Rocket 3.8 19:56:05 10° S 20:01:09 45° ESE 20:06:15 10° NNE
Cosmos 389 Rocket 3.9 20:00:14 17° ESE 20:01:32 21° E 20:04:14 10° NE
Cosmos 2297 Rocket 3.5 20:02:12 14° SE 20:04:49 19° E 20:08:40 10° ENE
Cosmos 2333 Rocket 2.3 19:59:18 10° NNW 20:05:05 82° WSW 20:10:49 10° SSE
Cosmos 1634 Rocket 4.0 19:59:49 10° S 20:06:00 65° E 20:12:11 10° NNE
BREEZE-M DEB (TANK) 2.5 20:04:14 10° WNW 20:06:42 41° N 20:08:17 16° ENE
ATLAS 2AS CENTAUR R/B 3.1 19:59:28 10° SW 20:07:24 86° NW 20:15:15 10° NE
SPOT 3 Rocket 4.0 20:03:45 14° SE 20:07:52 45° ENE 20:12:48 10° N
Cosmos 1825 2.1 20:04:56 10° N 20:08:42 67° E 20:11:58 13° SSE
Cosmos 1726 Rocket 4.2 20:04:54 10° SSW 20:09:13 58° W 20:13:32 10° N
ARIANE 5 R/B 4.3 20:09:19 15° E 20:11:11 19° ENE 20:14:16 10° NNE
Ariane Rocket 3.0 20:08:13 10° SSE 20:13:17 88° WSW 20:18:23 10° NNW
Cosmos 2322 4.1 20:10:23 10° NNW 20:15:59 65° WSW 20:21:34 10° SSE
Cosmos 1408 3.2 20:13:14 10° NNW 20:16:43 53° W 20:20:11 10° S
Orbus 7S? 3.0 20:15:46 10° SW 20:18:30 90° SE 20:23:25 10° NE
CZ-4C R/B 4.0 20:15:23 10° W 20:20:05 33° NNW 20:25:40 10° NNE
RESURS DK-1 2.2 20:16:50 10° SSW 20:20:56 79° ESE 20:25:06 10° NNE
Landsat 7 4.2 20:20:37 21° SE 20:23:31 47° ENE 20:28:05 10° N
USA 245 4.4 20:24:37 23° E 20:25:41 26° ENE 20:28:37 10° NNE
Cosmos-2242 4.3 20:25:50 21° E 20:26:11 21° E 20:29:27 10° NE
Meteor 2-1 Rocket 4.3 20:21:42 10° S 20:27:31 80° E 20:33:27 10° NNE
Cosmos 2058 3.0 20:25:36 10° NNW 20:29:48 75° W 20:33:18 14° S
Cosmos 1655 Rocket 4.4 20:28:24 10° N 20:34:26 45° ENE 20:37:46 25° SE
SL-16 R/B 3.7 20:30:36 10° N 20:35:03 23° NE 20:37:53 16° E
Cosmos 2058 Rocket 3.9 20:31:10 10° SSW 20:35:24 50° WNW 20:39:40 10° N
Cosmos 614 Rocket 3.9 20:30:43 10° S 20:35:48 64° ESE 20:40:52 10° NNE
Cosmos 1980 4.0 20:31:11 10° NNW 20:36:47 55° ENE 20:39:45 27° SE
BREEZE-M DEB (TANK) 4.0 20:33:39 10° W 20:37:49 75° N 20:53:26 10° ENE
Cosmos 2360 Rocket 4.5 20:37:13 10° NW 20:41:13 20° W 20:45:11 10° SW
IRIDIUM 104 4.2 20:40:01 17° S 20:44:00 71° E 20:49:13 10° N
Cosmos 2151 3.4 20:40:01 10° N 20:44:10 44° ENE 20:45:17 36° ESE
COSMOS 2428 3.3 20:39:57 10° NW 20:45:33 56° WSW 20:49:50 17° S
Cosmos 2344 3.5 20:38:14 10° SW 20:45:44 87° NW 20:53:42 10° NE
Meteor 2-3 Rocket 4.2 20:40:38 10° N 20:46:09 44° ENE 20:48:26 30° ESE
FALCON 9 DEB 3.1 20:44:12 10° WSW 20:47:38 81° NNW 20:49:44 22° NE
Cosmos 1076 Rocket 3.4 20:43:38 10° N 20:48:01 89° E 20:50:07 30° S
ATLAS 3B R/B 2.9 20:41:29 10° NW 20:48:30 72° SW 20:53:12 24° SSE
USA 215 3.3 20:45:38 26° ESE 20:49:40 77° NNE 20:56:13 10° NW
Cosmos 1812 Rocket 3.5 20:47:57 27° S 20:50:17 67° E 20:54:44 10° NNE
Cosmos 192 4.3 20:45:19 10° NNW 20:50:19 78° ENE 20:52:27 34° SSE
Resurs 01 Rocket 1.9 20:50:18 23° S 20:53:02 68° WSW 20:57:29 10° NNW
IRIDIUM 114 4.2 20:49:08 17° S 20:53:09 85° E 20:58:24 10° N
Cosmos 1818 3.7 20:48:10 10° SW 20:53:37 79° NW 20:59:08 10° NE
Cosmos 1455 4.2 20:51:08 10° SW 20:54:25 29° WNW 20:57:43 10° NNW
Cosmos 44 3.8 20:50:44 10° SW 20:55:49 66° NW 21:01:13 10° NNE
ERS-1 Rocket 3.7 20:54:40 31° E 20:55:58 36° ENE 21:00:32 10° N
Cosmos 407 Rocket 3.5 20:53:35 27° SSE 20:56:06 52° ESE 21:01:07 10° NNE
Cosmos 2219 Rocket 3.4 20:53:19 10° NW 20:58:30 37° WSW 21:02:59 13° SSW
NOSS 0 Rocket 4.0 20:53:31 10° NNW 20:59:45 76° WSW 21:03:07 29° SSE
IRIDIUM 103 4.4 20:58:16 17° S 21:02:18 80° W 21:07:33 10° N
Meteor 2-21 4.3 20:56:15 10° N 21:02:20 80° E 21:05:27 31° SSE
Cosmos 1633 2.3 21:00:20 10° N 21:03:57 77° E 21:04:10 73° ESE
Cosmos 1356 4.3 21:01:24 10° NNW 21:04:41 44° W 21:05:42 33° SW
CARTOSAT-1 3.8 21:04:22 46° E 21:04:59 50° ENE 21:09:11 10° N
IGS 5A 3.9 21:04:09 30° SSW 21:05:59 57° W 21:10:06 10° NNW
Lacrosse 5 rocket 3.9 21:06:17 10° NW 21:09:22 19° N 21:12:34 10° NE
Cosmos 405 Rocket 3.9 21:06:54 10° NNW 21:10:42 41° W 21:12:30 25° SSW
Cosmos 909 Rocket 4.3 21:05:48 10° SW 21:12:06 69° NW 21:18:35 10° NNE
Cosmos 1023 Rocket 4.3 21:12:04 36° S 21:14:04 68° ESE 21:19:08 10° NNE
COSMOS 2455 3.9 21:18:15 27° E 21:18:15 27° E 21:21:59 10° NE
SPOT 5 2.9 21:19:30 51° E 21:19:56 53° ENE 21:24:32 10° N
Cosmos 1140 Rocket 3.3 21:18:31 38° S 21:20:30 75° ESE 21:25:39 10° NNE
Spot 2 Rocket 3.4 21:21:43 49° SSE 21:23:08 89° WSW 21:28:15 10° NNW
Cosmos 2237 Rocket 2.3 21:20:03 10° NNW 21:25:41 71° WSW 21:27:26 44° S
CZ-2C R/B 4.2 21:21:55 10° N 21:26:17 57° WNW 21:28:54 23° SW
SL-8 R/B 4.4 21:22:11 10° WNW 21:26:42 39° SSW 21:26:55 39° SSW
Terra 2.2 21:28:59 47° E 21:29:12 48° ENE 21:33:46 10° N
Cosmos 2082 4.3 21:39:13 39° E 21:39:13 39° E 21:43:25 10° NE
SPOT 1/Viking Rocket 4.2 21:38:50 35° SSW 21:40:40 50° W 21:45:46 10° NNW
Cosmos 2227 Rocket 2.0 21:38:45 42° SSW 21:40:46 83° ESE 21:46:28 10° NNE
Meteor 2-8 Rocket 4.3 21:42:18 54° SSE 21:43:40 73° E 21:49:47 10° NNE
ARIANE 5 R/B 3.1 21:46:52 49° WSW 21:47:17 51° W 21:51:36 10° NNW
Cosmos 2297 Rocket 2.4 21:43:48 17° SW 21:48:14 70° WNW 21:53:54 10° NNE
Cosmos 1190 Rocket 4.1 21:47:49 39° SW 21:49:44 73° WNW 21:54:58 10° NNE
Cosmos 2219 3.3 21:47:37 25° SW 21:50:59 73° WNW 21:56:38 10° NNE
Cosmos 2266 Rocket 4.4 21:45:41 10° NNW 21:51:57 59° W 21:54:23 37° SSW
H-2A R/B 4.2 21:50:40 10° NNE 21:53:41 45° NNE 21:53:41 45° NNE
Timation 2 Rocket 4.1 21:54:58 18° SW 22:00:03 76° WNW 22:06:25 10° NNE
Genesis I 4.2 21:57:18 10° NW 22:00:15 44° WNW 22:00:15 44° WNW
BREEZE M DEB (TANK) 4.2 21:59:04 15° SW 22:02:51 76° SSE 22:18:42 10° ENE
Cosmos 1763 Rocket 3.7 21:58:15 10° NNW 22:02:58 55° NE 22:02:58 55° NE
Cosmos-2242 4.3 22:02:38 33° WSW 22:03:29 37° WNW 22:07:32 10° N
Nadezhda 2 Rocket 4.3 21:58:47 10° N 22:05:06 77° E 22:05:44 69° SE
Cosmos 676 Rocket 3.9 22:07:09 84° WNW 22:07:09 84° WNW 22:12:22 10° NNE
Cosmos 1408 Rocket 4.2 22:02:52 10° N 22:06:07 48° NNE 22:06:07 48° NNE
CRYOSAT 2 4.5 22:10:15 71° NNE 22:10:15 71° NNE 22:14:41 10° N
SL-16 R/B 2.2 22:14:05 10° NNW 22:19:46 73° WSW 22:19:46 73° WSW
Meteor 2-15 Rocket 4.2 22:22:07 82° ESE 22:22:14 83° E 22:28:20 10° N
Cosmos 540 Rocket 4.2 22:17:43 10° N 22:22:04 44° NE 22:22:04 44° NE
Cosmos 1244 Rocket 4.4 22:20:07 10° N 22:26:31 82° W 22:27:02 75° SSW
NOSS 3-1 (C) 4.2 22:19:14 10° NW 22:26:36 68° NE 22:28:42 51° ESE
SL-08 ROCKET BODY 4.3 22:21:50 10° N 22:27:52 76° ENE 22:27:52 76° ENE
Cosmos 2221 3.8 22:30:07 36° N 22:30:07 36° N 22:32:42 10° N
SL-08 R/B 4.3 22:25:29 10° N 22:31:41 81° E 22:31:42 81° E
USA 215 4.0 22:32:58 36° SW 22:33:02 36° SW 22:38:58 10° WNW
Cosmos 44 Rocket 4.3 22:36:36 41° NE 22:36:36 41° NE 22:39:59 10° NE
ERS-1 Rocket 4.2 22:34:39 31° W 22:34:47 31° W 22:39:15 10° NNW
Aureole 1 Rocket 4.5 22:38:07 39° NE 22:38:07 39° NE 22:41:14 10° NNE
Cosmos 1553 Rocket 3.8 22:39:11 81° NE 22:39:11 81° NE 22:45:04 10° N
ALOS 2 4.4 22:49:56 26° NNE 22:49:56 26° NNE 22:52:21 10° N
Cosmos 1943 3.7 22:43:56 10° NNW 22:48:59 51° NE 22:48:59 51° NE
Cosmos 1417 Rocket 4.4 22:49:46 83° NE 22:49:46 83° NE 22:55:52 10° N
Lacrosse 5 rocket 3.4 22:46:01 10° NW 22:49:42 26° NNE 22:49:47 26° NNE
COSMOS 2455 3.4 23:01:18 47° W 23:02:27 54° NW 23:08:23 10° NNE
SeaSat 1 3.3 23:00:48 10° NNE 23:04:24 47° N 23:04:24 47° N
Terra 3.8 23:07:51 21° W 23:07:51 21° W 23:10:49 10° NW
Cosmos 2315 Rocket 4.5 23:10:31 51° ENE 23:10:31 51° ENE 23:15:47 10° NNE
Cosmos 2263 Rocket 2.8 23:24:25 50° NNE 23:24:25 50° NNE 23:28:28 10° NNE
Cosmos 2227 Rocket 4.4 23:21:23 10° W 23:25:33 21° NW 23:29:44 10° N
USA 229 DEB 3.8 23:26:22 10° NW 23:33:33 81° WSW 23:33:33 81° WSW
USA 229 3.8 23:26:27 10° NW 23:33:40 81° WSW 23:33:40 81° WSW
Cosmos 1603 4.4 23:28:14 10° NNW 23:32:30 50° NW 23:32:30 50° NW
USA 281 3.9 23:33:04 42° ENE 23:33:58 44° NE 23:40:08 10° NNW
Cosmos 1709 Rocket 4.3 23:41:26 10° NNW 23:46:44 59° NW 23:46:44 59° NW
